sat.trackr.live / text

‹ back to catalog

STARLINK-5683

NORAD 55452 · 2023-015D

PAYLOAD ACTIVE UNKNOWN

§ Identity

Operator
Country
US
Launch date
2023-02-02
Launch site
AFETR
Launch vehicle
Mass (kg)
RCS (m²)

Purposes: comms

External: N2YO · Heavens-Above · Gunter

§ Orbital elements

Epoch: 2026-09-20T14:05:09.357504Z

Period
94.27 min
Inclination
43.0052°
Eccentricity
0.0001818
Mean motion
15.27574051 rev/d
Perigee alt
481.8 km
Apogee alt
484.3 km
Semi-major
6,861.2 km
B*
-3.7058e-6
RAAN
308.5074°
Arg perigee
288.8617°
Mean anomaly
71.2038°
Rev number
20,052

§ Raw data

STARLINK-56831 55452U 23015D   26263.58691386 -.00000364  00000+0 -37058-5 0  99992 55452  43.0052 308.5074 0001818 288.8617  71.2038 15.27574051200529

JSON: /api/v1/satellites/55452 · /tle

For live sub-satellite position, see the globe view (requires WebGL).

§ Visibility from observer

Set your observer location to see the next 7 days of passes ≥ 10°. The values pass through the URL so the page stays shareable.

No JS? Fill the form by hand. The geolocation button needs JavaScript.